Time,TemperatureF,DewpointF,PressureIn,WindDirection,WindDirectionDegrees,WindSpeedMPH,WindSpeedGustMPH,Humidity,HourlyPrecipIn,Conditions,Clouds,dailyrainin,SoftwareType,DateUTC
2013-08-30 00:04:00,78.5,75.0,29.89,NW,318,0.0,1.0,88,0.00,,,0.00,weatherlink.com 1.10,2013-08-30 05:04:00,
2013-08-30 00:19:00,78.3,75.0,29.89,NW,318,0.0,1.0,88,0.00,,,0.00,weatherlink.com 1.10,2013-08-30 05:19:00,
2013-08-30 00:34:00,78.2,74.0,29.89,NW,318,0.0,0.0,88,0.00,,,0.00,weatherlink.com 1.10,2013-08-30 05:34:00,
2013-08-30 00:49:00,78.1,74.0,29.89,NW,318,0.0,0.0,88,0.00,,,0.00,weatherlink.com 1.10,2013-08-30 05:49:00,
2013-08-30 01:04:00,78.0,74.0,29.89,NW,318,0.0,0.0,88,0.00,,,0.00,weatherlink.com 1.10,2013-08-30 06:04:00,
2013-08-30 01:19:00,77.7,74.0,29.89,NW,318,0.0,1.0,89,0.00,,,0.00,weatherlink.com 1.10,2013-08-30 06:19:00,
2013-08-30 01:34:00,77.7,74.0,29.89,NW,318,0.0,0.0,88,0.00,,,0.00,weatherlink.com 1.10,2013-08-30 06:34:00,
2013-08-30 01:49:00,77.5,74.0,29.89,NW,318,1.0,2.0,89,0.00,,,0.00,weatherlink.com 1.10,2013-08-30 06:49:00,
2013-08-30 02:04:00,76.9,74.0,29.89,NW,318,0.0,1.0,90,0.00,,,0.00,weatherlink.com 1.10,2013-08-30 07:04:00,
2013-08-30 02:19:00,76.6,74.0,29.89,NW,318,0.0,0.0,90,0.00,,,0.00,weatherlink.com 1.10,2013-08-30 07:19:00,
2013-08-30 02:34:00,76.3,74.0,29.89,NW,318,0.0,1.0,91,0.00,,,0.00,weatherlink.com 1.10,2013-08-30 07:34:00,
2013-08-30 02:49:00,76.1,73.0,29.89,NW,318,0.0,0.0,91,0.00,,,0.00,weatherlink.com 1.10,2013-08-30 07:49:00,
2013-08-30 03:04:00,76.0,73.0,29.88,NW,318,0.0,1.0,91,0.00,,,0.00,weatherlink.com 1.10,2013-08-30 08:04:00,
2013-08-30 03:19:00,75.9,73.0,29.88,NW,318,0.0,0.0,91,0.00,,,0.00,weatherlink.com 1.10,2013-08-30 08:19:00,
2013-08-30 03:34:00,75.8,73.0,29.89,NW,318,0.0,0.0,91,0.00,,,0.00,weatherlink.com 1.10,2013-08-30 08:34:00,
2013-08-30 04:04:00,75.3,73.0,29.89,NW,318,0.0,0.0,91,0.00,,,0.00,weatherlink.com 1.10,2013-08-30 09:04:00,
2013-08-30 04:19:00,75.1,73.0,29.89,NW,318,0.0,0.0,92,0.00,,,0.00,weatherlink.com 1.10,2013-08-30 09:19:00,
2013-08-30 04:34:00,74.9,73.0,29.89,NW,318,0.0,0.0,92,0.00,,,0.00,weatherlink.com 1.10,2013-08-30 09:34:00,
2013-08-30 04:49:00,74.6,72.0,29.89,NW,318,0.0,0.0,91,0.00,,,0.00,weatherlink.com 1.10,2013-08-30 09:49:00,
2013-08-30 05:04:00,74.4,72.0,29.89,NW,318,0.0,0.0,92,0.00,,,0.00,weatherlink.com 1.10,2013-08-30 10:04:00,
2013-08-30 05:19:00,74.2,72.0,29.88,NW,318,0.0,0.0,91,0.00,,,0.00,weatherlink.com 1.10,2013-08-30 10:19:00,
2013-08-30 05:34:00,74.0,71.0,29.88,NW,318,0.0,0.0,91,0.00,,,0.00,weatherlink.com 1.10,2013-08-30 10:34:00,
2013-08-30 05:50:00,73.9,71.0,29.89,NW,318,0.0,0.0,91,0.00,,,0.00,weatherlink.com 1.10,2013-08-30 10:50:00,
2013-08-30 06:05:00,73.9,71.0,29.89,NW,318,0.0,0.0,91,0.00,,,0.00,weatherlink.com 1.10,2013-08-30 11:05:00,
2013-08-30 06:20:00,73.9,71.0,29.89,NW,318,0.0,0.0,91,0.00,,,0.00,weatherlink.com 1.10,2013-08-30 11:20:00,
2013-08-30 06:35:00,73.6,71.0,29.90,NW,318,0.0,0.0,91,0.00,,,0.00,weatherlink.com 1.10,2013-08-30 11:35:00,
2013-08-30 06:50:00,73.7,71.0,29.91,NW,318,0.0,0.0,91,0.00,,,0.00,weatherlink.com 1.10,2013-08-30 11:50:00,
2013-08-30 07:05:00,74.2,72.0,29.91,NW,318,0.0,0.0,91,0.00,,,0.00,weatherlink.com 1.10,2013-08-30 12:05:00,
2013-08-30 07:20:00,75.2,72.0,29.91,NW,318,0.0,0.0,89,0.00,,,0.00,weatherlink.com 1.10,2013-08-30 12:20:00,
2013-08-30 07:35:00,76.6,72.0,29.91,SW,224,0.0,3.0,85,0.00,,,0.00,weatherlink.com 1.10,2013-08-30 12:35:00,
2013-08-30 07:50:00,78.1,72.0,29.91,WSW,257,0.0,3.0,82,0.00,,,0.00,weatherlink.com 1.10,2013-08-30 12:50:00,
2013-08-30 08:05:00,79.3,73.0,29.91,WSW,257,2.0,3.0,80,0.00,,,0.00,weatherlink.com 1.10,2013-08-30 13:05:00,
2013-08-30 08:20:00,80.4,73.0,29.91,West,262,1.0,4.0,78,0.00,,,0.00,weatherlink.com 1.10,2013-08-30 13:20:00,
2013-08-30 08:35:00,81.6,74.0,29.91,SW,222,2.0,5.0,77,0.00,,,0.00,weatherlink.com 1.10,2013-08-30 13:35:00,
2013-08-30 08:50:00,82.6,74.0,29.91,West,270,3.0,5.0,76,0.00,,,0.00,weatherlink.com 1.10,2013-08-30 13:50:00,
2013-08-30 09:05:00,83.9,75.0,29.91,WNW,297,3.0,4.0,74,0.00,,,0.00,weatherlink.com 1.10,2013-08-30 14:05:00,
2013-08-30 09:20:00,84.8,75.0,29.91,WSW,258,1.0,6.0,73,0.00,,,0.00,weatherlink.com 1.10,2013-08-30 14:20:00,
2013-08-30 09:35:00,85.9,76.0,29.91,WSW,237,2.0,7.0,71,0.00,,,0.00,weatherlink.com 1.10,2013-08-30 14:35:00,
2013-08-30 09:50:00,86.9,75.0,29.90,West,269,3.0,7.0,68,0.00,,,0.00,weatherlink.com 1.10,2013-08-30 14:50:00,
2013-08-30 10:05:00,87.4,75.0,29.91,West,260,6.0,7.0,67,0.00,,,0.00,weatherlink.com 1.10,2013-08-30 15:05:00,
2013-08-30 10:20:00,88.4,76.0,29.90,WSW,254,1.0,6.0,66,0.00,,,0.00,weatherlink.com 1.10,2013-08-30 15:20:00,
2013-08-30 10:35:00,89.0,75.0,29.90,WNW,301,3.0,7.0,64,0.00,,,0.00,weatherlink.com 1.10,2013-08-30 15:35:00,
2013-08-30 10:50:00,90.2,76.0,29.90,WNW,282,3.0,6.0,63,0.00,,,0.00,weatherlink.com 1.10,2013-08-30 15:50:00,
2013-08-30 11:05:00,90.7,75.0,29.89,West,272,4.0,6.0,61,0.00,,,0.00,weatherlink.com 1.10,2013-08-30 16:05:00,
2013-08-30 11:20:00,91.1,74.0,29.89,WNW,283,3.0,6.0,58,0.00,,,0.00,weatherlink.com 1.10,2013-08-30 16:20:00,
2013-08-30 11:35:00,91.1,74.0,29.89,West,273,6.0,9.0,58,0.00,,,0.00,weatherlink.com 1.10,2013-08-30 16:35:00,
2013-08-30 11:50:00,92.0,75.0,29.88,SSW,195,1.0,8.0,58,0.00,,,0.00,weatherlink.com 1.10,2013-08-30 16:50:00,
2013-08-30 12:21:00,92.8,73.0,29.88,SE,145,2.0,9.0,52,0.00,,,0.00,weatherlink.com 1.10,2013-08-30 17:21:00,
2013-08-30 12:36:00,93.2,72.0,29.87,WSW,245,4.0,8.0,51,0.00,,,0.00,weatherlink.com 1.10,2013-08-30 17:36:00,
2013-08-30 12:51:00,93.2,72.0,29.87,WSW,245,2.0,10.0,51,0.00,,,0.00,weatherlink.com 1.10,2013-08-30 17:51:00,
2013-08-30 13:06:00,93.7,72.0,29.87,WSW,251,1.0,8.0,49,0.00,,,0.00,weatherlink.com 1.10,2013-08-30 18:06:00,
2013-08-30 13:21:00,94.0,70.0,29.86,SE,139,2.0,8.0,46,0.00,,,0.00,weatherlink.com 1.10,2013-08-30 18:21:00,
2013-08-30 13:36:00,94.0,70.0,29.86,WSW,250,5.0,7.0,46,0.00,,,0.00,weatherlink.com 1.10,2013-08-30 18:36:00,
2013-08-30 13:51:00,94.0,71.0,29.86,West,267,4.0,8.0,47,0.00,,,0.00,weatherlink.com 1.10,2013-08-30 18:51:00,
2013-08-30 14:06:00,94.8,71.0,29.86,SSE,163,2.0,7.0,46,0.00,,,0.00,weatherlink.com 1.10,2013-08-30 19:06:00,
2013-08-30 14:21:00,94.6,71.0,29.85,West,267,4.0,8.0,46,0.00,,,0.00,weatherlink.com 1.10,2013-08-30 19:21:00,
2013-08-30 14:36:00,95.0,71.0,29.84,SSE,160,4.0,9.0,46,0.00,,,0.00,weatherlink.com 1.10,2013-08-30 19:36:00,
2013-08-30 14:51:00,94.8,72.0,29.84,SSE,154,7.0,7.0,47,0.00,,,0.00,weatherlink.com 1.10,2013-08-30 19:51:00,
2013-08-30 15:06:00,94.9,72.0,29.84,SSE,162,3.0,9.0,48,0.00,,,0.00,weatherlink.com 1.10,2013-08-30 20:06:00,
2013-08-30 15:21:00,95.0,72.0,29.83,WSW,244,4.0,10.0,47,0.00,,,0.00,weatherlink.com 1.10,2013-08-30 20:21:00,
2013-08-30 15:36:00,95.3,73.0,29.83,SW,220,3.0,8.0,48,0.00,,,0.00,weatherlink.com 1.10,2013-08-30 20:36:00,
2013-08-30 15:51:00,93.9,73.0,29.83,WSW,247,4.0,7.0,50,0.00,,,0.00,weatherlink.com 1.10,2013-08-30 20:51:00,
2013-08-30 16:06:00,93.1,73.0,29.82,South,191,0.0,6.0,52,0.00,,,0.00,weatherlink.com 1.10,2013-08-30 21:06:00,
2013-08-30 16:21:00,92.6,74.0,29.82,WSW,256,0.0,6.0,54,0.00,,,0.00,weatherlink.com 1.10,2013-08-30 21:21:00,
2013-08-30 16:36:00,92.4,73.0,29.81,SW,224,1.0,5.0,54,0.00,,,0.00,weatherlink.com 1.10,2013-08-30 21:36:00,
2013-08-30 16:51:00,91.7,74.0,29.82,WSW,239,1.0,6.0,57,0.00,,,0.00,weatherlink.com 1.10,2013-08-30 21:51:00,
2013-08-30 17:06:00,91.1,75.0,29.81,SW,234,5.0,6.0,60,0.00,,,0.00,weatherlink.com 1.10,2013-08-30 22:06:00,
2013-08-30 17:21:00,90.2,75.0,29.81,WSW,257,1.0,5.0,62,0.00,,,0.00,weatherlink.com 1.10,2013-08-30 22:21:00,
2013-08-30 17:36:00,90.2,76.0,29.81,SW,236,0.0,5.0,63,0.00,,,0.00,weatherlink.com 1.10,2013-08-30 22:36:00,
2013-08-30 17:51:00,90.6,76.0,29.80,SW,236,2.0,4.0,62,0.00,,,0.00,weatherlink.com 1.10,2013-08-30 22:51:00,
2013-08-30 18:06:00,92.0,75.0,29.80,WSW,238,0.0,5.0,58,0.00,,,0.00,weatherlink.com 1.10,2013-08-30 23:06:00,
2013-08-30 18:21:00,91.0,76.0,29.80,WSW,244,2.0,5.0,61,0.00,,,0.00,weatherlink.com 1.10,2013-08-30 23:21:00,
2013-08-30 18:36:00,90.4,76.0,29.80,SW,224,2.0,6.0,62,0.00,,,0.00,weatherlink.com 1.10,2013-08-30 23:36:00,
2013-08-30 18:51:00,89.6,76.0,29.79,SSW,196,2.0,3.0,65,0.00,,,0.00,weatherlink.com 1.10,2013-08-30 23:51:00,
2013-08-30 19:06:00,88.3,76.0,29.79,SW,214,4.0,4.0,67,0.00,,,0.00,weatherlink.com 1.10,2013-08-31 00:06:00,
2013-08-30 19:21:00,87.2,76.0,29.79,SW,226,2.0,6.0,70,0.00,,,0.00,weatherlink.com 1.10,2013-08-31 00:21:00,
2013-08-30 19:36:00,86.5,77.0,29.79,SW,224,0.0,5.0,72,0.00,,,0.00,weatherlink.com 1.10,2013-08-31 00:36:00,
2013-08-30 19:51:00,85.8,76.0,29.80,SW,224,0.0,6.0,73,0.00,,,0.00,weatherlink.com 1.10,2013-08-31 00:51:00,
2013-08-30 20:06:00,85.5,76.0,29.80,SSE,164,1.0,3.0,74,0.00,,,0.00,weatherlink.com 1.10,2013-08-31 01:06:00,
2013-08-30 20:21:00,85.1,76.0,29.80,SSE,166,0.0,4.0,74,0.00,,,0.00,weatherlink.com 1.10,2013-08-31 01:21:00,
2013-08-30 20:36:00,84.7,76.0,29.80,SW,220,2.0,8.0,75,0.00,,,0.00,weatherlink.com 1.10,2013-08-31 01:36:00,
2013-08-30 20:51:00,84.2,76.0,29.80,WSW,237,0.0,3.0,77,0.00,,,0.00,weatherlink.com 1.10,2013-08-31 01:51:00,
2013-08-30 21:06:00,83.8,76.0,29.80,WSW,237,0.0,3.0,78,0.00,,,0.00,weatherlink.com 1.10,2013-08-31 02:06:00,
2013-08-30 21:21:00,83.6,76.0,29.80,SSW,199,2.0,2.0,78,0.00,,,0.00,weatherlink.com 1.10,2013-08-31 02:21:00,
2013-08-30 21:36:00,83.4,76.0,29.80,SW,221,0.0,2.0,78,0.00,,,0.00,weatherlink.com 1.10,2013-08-31 02:36:00,
2013-08-30 21:51:00,83.2,76.0,29.80,SW,221,0.0,3.0,78,0.00,,,0.00,weatherlink.com 1.10,2013-08-31 02:51:00,
2013-08-30 22:06:00,82.8,76.0,29.80,SW,221,1.0,3.0,79,0.00,,,0.00,weatherlink.com 1.10,2013-08-31 03:06:00,
2013-08-30 22:21:00,82.4,76.0,29.79,SSW,210,3.0,4.0,80,0.00,,,0.00,weatherlink.com 1.10,2013-08-31 03:21:00,
2013-08-30 22:36:00,82.3,76.0,29.79,West,260,0.0,6.0,80,0.00,,,0.00,weatherlink.com 1.10,2013-08-31 03:36:00,
2013-08-30 22:51:00,82.3,75.0,29.79,WSW,243,1.0,7.0,79,0.00,,,0.00,weatherlink.com 1.10,2013-08-31 03:51:00,
2013-08-30 23:06:00,82.3,75.0,29.78,SW,230,0.0,4.0,79,0.00,,,0.00,weatherlink.com 1.10,2013-08-31 04:06:00,
2013-08-30 23:21:00,82.1,75.0,29.79,SW,223,1.0,5.0,79,0.00,,,0.00,weatherlink.com 1.10,2013-08-31 04:21:00,
2013-08-30 23:36:00,81.9,75.0,29.79,SW,223,1.0,2.0,80,0.00,,,0.00,weatherlink.com 1.10,2013-08-31 04:36:00,
2013-08-30 23:51:00,81.6,75.0,29.79,SW,223,0.0,2.0,81,0.00,,,0.00,weatherlink.com 1.10,2013-08-31 04:51:00,